Location: Gro� Glienicke
(52.4675°N, 13.1079°E)
Time: 17:42:42
(UTC+00:00)

IRIDIUM 114 - Pass Details

Date: 06 July 2020
Orbit: 776 x 779 km, 86.4° (Epoch: 13 August)

Event Time Altitude Azimuth Distance (km) Brightness Sun altitude
Exits shadow 22:59:03 21° 196° (SSW) 1,678 5.5 -14.9°
Maximum altitude 23:02:31 70° 276° (W) 832 4.5 -14.9°
Drops below altitude 10° 23:07:46 10° 1° (N) 2,345 8.2 -15.0°
Sets 23:10:09 0° 4° (N) 3,277 9.5 -15.0°
